Tracking 19706 objects as of 17-Jun-2019
HD Live streaming from Space Station
objects crossing your sky now

TITAN 3C TRANSTAGE DEB

Track TITAN 3C TRANSTAGE DEB now!


NORAD ID: 40551
Int'l Code: 1965-108DR
Perigee: 531.8 km
Apogee: 31,599.0 km
Inclination: 26.9 °
Period: 557.4 minutes
Semi major axis: 22436 km
RCS: Unknown
Launch date: December 21, 1965
Source: United States (US)
Launch site: AIR FORCE EASTERN TEST RANGE (AFETR)

Note: This is SATELLITE DEBRIS
aabbcc
Your satellite tracking list
Your tracking list is empty




NASA's NSSDC Master Catalog

Two Line Element Set (TLE):
1 40551U 65108DR  19164.01851521  .00000820  00000-0  65752-2 0  9996
2 40551  26.9434  16.5971 6923380 110.5980 314.3590  2.58329157100568
Source of the keplerian elements: AFSPC